{"data":{"norad_id":56506,"intl_designator":"2023-065D","name":"STARLINK-5340","alt_names":[],"object_type":"PAYLOAD","status":"ACTIVE","operator":null,"country":"US","launch_date":"2023-05-14","launch_site_code":"AFETR","launch_vehicle":null,"mission":null,"orbit_class":"UNKNOWN","rcs_meters":null,"size_class":null,"mass_kg":null,"dimensions":null,"purposes":["comms"],"wikipedia_slug":null,"has_3d_model":false,"image_url":null,"decayed_at":null,"tle_current":{"epoch":"2026-09-20T01:12:07.439040Z","epoch_age_seconds":153818,"freshness":"FRESH","line1":"1 56506U 23065D   26263.05008610  .00000129  00000+0  14230-4 0  9992","line2":"2 56506  43.0031 183.6170 0001407 268.7429  91.3261 15.27574777186459","mean_motion":15.27574777,"eccentricity":0.0001407,"inclination_deg":43.0031,"raan_deg":183.617,"arg_perigee_deg":268.7429,"mean_anomaly_deg":91.3261,"bstar":1.423e-5,"rev_number":18645,"period_min":94.267071025355,"perigee_km":482.09936454098,"apogee_km":484.03010670938,"semimajor_km":6861.2017356252,"source":"CELESTRAK","updated_at":"2026-09-21T09:00:33.469492Z"}}}